Date_Time,Julian_Date,Latitude,Longitude,Instrument_Depth,Water_Salinity
(yyyy-mm-dd hh:mn:ss UTC),(JD),(+ deg. North),(+ deg. East),(m),(ppt)
1981-08-25 17:30:00 UTC,2444842.229167,28.7317,-95.2428,0109,0.3330
1981-08-25 18:00:00 UTC,2444842.250000,28.7317,-95.2428,0109,0.3330
1981-08-25 18:30:00 UTC,2444842.270833,28.7317,-95.2428,0109,0.3330
1981-08-25 19:00:00 UTC,2444842.291667,28.7317,-95.2428,0109,0.3340
1981-08-25 19:30:00 UTC,2444842.312500,28.7317,-95.2428,0109,0.3330
1981-08-25 20:00:00 UTC,2444842.333333,28.7317,-95.2428,0109,0.3330
1981-08-25 20:30:00 UTC,2444842.354167,28.7317,-95.2428,0109,0.3330
1981-08-25 21:00:00 UTC,2444842.375000,28.7317,-95.2428,0109,0.3320
1981-08-25 21:30:00 UTC,2444842.395833,28.7317,-95.2428,0109,0.3320
1981-08-25 22:00:00 UTC,2444842.416667,28.7317,-95.2428,0109,0.3320
1981-08-25 22:30:00 UTC,2444842.437500,28.7317,-95.2428,0109,0.3320
1981-08-25 23:00:00 UTC,2444842.458333,28.7317,-95.2428,0109,0.3310
1981-08-25 23:30:00 UTC,2444842.479167,28.7317,-95.2428,0109,0.3320
1981-08-26 00:00:00 UTC,2444842.500000,28.7317,-95.2428,0109,0.3310
1981-08-26 00:30:00 UTC,2444842.520833,28.7317,-95.2428,0109,0.3310
1981-08-26 01:00:00 UTC,2444842.541667,28.7317,-95.2428,0109,0.3310
1981-08-26 01:30:00 UTC,2444842.562500,28.7317,-95.2428,0109,0.3310
1981-08-26 02:00:00 UTC,2444842.583333,28.7317,-95.2428,0109,0.3310
1981-08-26 02:30:00 UTC,2444842.604167,28.7317,-95.2428,0109,0.3320
1981-08-26 03:00:00 UTC,2444842.625000,28.7317,-95.2428,0109,0.3310
1981-08-26 03:30:00 UTC,2444842.645833,28.7317,-95.2428,0109,0.3310
1981-08-26 04:00:00 UTC,2444842.666667,28.7317,-95.2428,0109,0.3310
1981-08-26 04:30:00 UTC,2444842.687500,28.7317,-95.2428,0109,0.3310
1981-08-26 05:00:00 UTC,2444842.708333,28.7317,-95.2428,0109,0.3310
1981-08-26 05:30:00 UTC,2444842.729167,28.7317,-95.2428,0109,0.3310
1981-08-26 06:00:00 UTC,2444842.750000,28.7317,-95.2428,0109,0.3310
1981-08-26 06:30:00 UTC,2444842.770833,28.7317,-95.2428,0109,0.3310
1981-08-26 07:00:00 UTC,2444842.791667,28.7317,-95.2428,0109,0.3310
1981-08-26 07:30:00 UTC,2444842.812500,28.7317,-95.2428,0109,0.3310
1981-08-26 08:00:00 UTC,2444842.833333,28.7317,-95.2428,0109,0.3310
1981-08-26 08:30:00 UTC,2444842.854167,28.7317,-95.2428,0109,0.3310
1981-08-26 09:00:00 UTC,2444842.875000,28.7317,-95.2428,0109,0.3310
1981-08-26 09:30:00 UTC,2444842.895833,28.7317,-95.2428,0109,0.3310
1981-08-26 10:00:00 UTC,2444842.916667,28.7317,-95.2428,0109,0.3310
1981-08-26 10:30:00 UTC,2444842.937500,28.7317,-95.2428,0109,0.3310
1981-08-26 11:00:00 UTC,2444842.958333,28.7317,-95.2428,0109,0.3300
1981-08-26 11:30:00 UTC,2444842.979167,28.7317,-95.2428,0109,0.3300
1981-08-26 12:00:00 UTC,2444843.000000,28.7317,-95.2428,0109,0.3300
1981-08-26 12:30:00 UTC,2444843.020833,28.7317,-95.2428,0109,0.3300
1981-08-26 13:00:00 UTC,2444843.041667,28.7317,-95.2428,0109,0.3310
1981-08-26 13:30:00 UTC,2444843.062500,28.7317,-95.2428,0109,0.3310
1981-08-26 14:00:00 UTC,2444843.083333,28.7317,-95.2428,0109,0.3310
1981-08-26 14:30:00 UTC,2444843.104167,28.7317,-95.2428,0109,0.3310
1981-08-26 15:00:00 UTC,2444843.125000,28.7317,-95.2428,0109,0.3300
1981-08-26 15:30:00 UTC,2444843.145833,28.7317,-95.2428,0109,0.3310
1981-08-26 16:00:00 UTC,2444843.166667,28.7317,-95.2428,0109,0.3310
1981-08-26 16:30:00 UTC,2444843.187500,28.7317,-95.2428,0109,0.3310
1981-08-26 17:00:00 UTC,2444843.208333,28.7317,-95.2428,0109,0.3310
1981-08-26 17:30:00 UTC,2444843.229167,28.7317,-95.2428,0109,0.3310
1981-08-26 18:00:00 UTC,2444843.250000,28.7317,-95.2428,0109,0.3310
1981-08-26 18:30:00 UTC,2444843.270833,28.7317,-95.2428,0109,0.3310
1981-08-26 19:00:00 UTC,2444843.291667,28.7317,-95.2428,0109,0.3310
1981-08-26 19:30:00 UTC,2444843.312500,28.7317,-95.2428,0109,0.3320
1981-08-26 20:00:00 UTC,2444843.333333,28.7317,-95.2428,0109,0.3320
1981-08-26 20:30:00 UTC,2444843.354167,28.7317,-95.2428,0109,0.3320
1981-08-26 21:00:00 UTC,2444843.375000,28.7317,-95.2428,0109,0.3320
1981-08-26 21:30:00 UTC,2444843.395833,28.7317,-95.2428,0109,0.3310
1981-08-26 22:00:00 UTC,2444843.416667,28.7317,-95.2428,0109,0.3310
1981-08-26 22:30:00 UTC,2444843.437500,28.7317,-95.2428,0109,0.3310
1981-08-26 23:00:00 UTC,2444843.458333,28.7317,-95.2428,0109,0.3300
1981-08-26 23:30:00 UTC,2444843.479167,28.7317,-95.2428,0109,0.3300
1981-08-27 00:00:00 UTC,2444843.500000,28.7317,-95.2428,0109,0.3300
1981-08-27 00:30:00 UTC,2444843.520833,28.7317,-95.2428,0109,0.3290
1981-08-27 01:00:00 UTC,2444843.541667,28.7317,-95.2428,0109,0.3290
1981-08-27 01:30:00 UTC,2444843.562500,28.7317,-95.2428,0109,0.3290
1981-08-27 02:00:00 UTC,2444843.583333,28.7317,-95.2428,0109,0.3290
1981-08-27 02:30:00 UTC,2444843.604167,28.7317,-95.2428,0109,0.3290
1981-08-27 03:00:00 UTC,2444843.625000,28.7317,-95.2428,0109,0.3290
1981-08-27 03:30:00 UTC,2444843.645833,28.7317,-95.2428,0109,0.3290
1981-08-27 04:00:00 UTC,2444843.666667,28.7317,-95.2428,0109,0.3290
1981-08-27 04:30:00 UTC,2444843.687500,28.7317,-95.2428,0109,0.3290
1981-08-27 05:00:00 UTC,2444843.708333,28.7317,-95.2428,0109,0.3290
1981-08-27 05:30:00 UTC,2444843.729167,28.7317,-95.2428,0109,0.3280
1981-08-27 06:00:00 UTC,2444843.750000,28.7317,-95.2428,0109,0.3280
1981-08-27 06:30:00 UTC,2444843.770833,28.7317,-95.2428,0109,0.3280
1981-08-27 07:00:00 UTC,2444843.791667,28.7317,-95.2428,0109,0.3280
1981-08-27 07:30:00 UTC,2444843.812500,28.7317,-95.2428,0109,0.3290
1981-08-27 08:00:00 UTC,2444843.833333,28.7317,-95.2428,0109,0.3310
1981-08-27 08:30:00 UTC,2444843.854167,28.7317,-95.2428,0109,0.3320
1981-08-27 09:00:00 UTC,2444843.875000,28.7317,-95.2428,0109,0.3320
1981-08-27 09:30:00 UTC,2444843.895833,28.7317,-95.2428,0109,0.3320
1981-08-27 10:00:00 UTC,2444843.916667,28.7317,-95.2428,0109,0.3320
1981-08-27 10:30:00 UTC,2444843.937500,28.7317,-95.2428,0109,0.3310
1981-08-27 11:00:00 UTC,2444843.958333,28.7317,-95.2428,0109,0.3310
1981-08-27 11:30:00 UTC,2444843.979167,28.7317,-95.2428,0109,0.3310
1981-08-27 12:00:00 UTC,2444844.000000,28.7317,-95.2428,0109,0.3310
1981-08-27 12:30:00 UTC,2444844.020833,28.7317,-95.2428,0109,0.3310
1981-08-27 13:00:00 UTC,2444844.041667,28.7317,-95.2428,0109,0.3310
1981-08-27 13:30:00 UTC,2444844.062500,28.7317,-95.2428,0109,0.3310
1981-08-27 14:00:00 UTC,2444844.083333,28.7317,-95.2428,0109,0.3310
1981-08-27 14:30:00 UTC,2444844.104167,28.7317,-95.2428,0109,0.3310
1981-08-27 15:00:00 UTC,2444844.125000,28.7317,-95.2428,0109,0.3310
1981-08-27 15:30:00 UTC,2444844.145833,28.7317,-95.2428,0109,0.3310
1981-08-27 16:00:00 UTC,2444844.166667,28.7317,-95.2428,0109,0.3300
1981-08-27 16:30:00 UTC,2444844.187500,28.7317,-95.2428,0109,0.3300
1981-08-27 17:00:00 UTC,2444844.208333,28.7317,-95.2428,0109,0.3300
1981-08-27 17:30:00 UTC,2444844.229167,28.7317,-95.2428,0109,0.3310
1981-08-27 18:00:00 UTC,2444844.250000,28.7317,-95.2428,0109,0.3310
1981-08-27 18:30:00 UTC,2444844.270833,28.7317,-95.2428,0109,0.3310
1981-08-27 19:00:00 UTC,2444844.291667,28.7317,-95.2428,0109,0.3300
1981-08-27 19:30:00 UTC,2444844.312500,28.7317,-95.2428,0109,0.3300
1981-08-27 20:00:00 UTC,2444844.333333,28.7317,-95.2428,0109,0.3290
1981-08-27 20:30:00 UTC,2444844.354167,28.7317,-95.2428,0109,0.3290
1981-08-27 21:00:00 UTC,2444844.375000,28.7317,-95.2428,0109,0.3290
1981-08-27 21:30:00 UTC,2444844.395833,28.7317,-95.2428,0109,0.3290
1981-08-27 22:00:00 UTC,2444844.416667,28.7317,-95.2428,0109,0.3280
1981-08-27 22:30:00 UTC,2444844.437500,28.7317,-95.2428,0109,0.3280
1981-08-27 23:00:00 UTC,2444844.458333,28.7317,-95.2428,0109,0.3270
1981-08-27 23:30:00 UTC,2444844.479167,28.7317,-95.2428,0109,0.3270
1981-08-28 00:00:00 UTC,2444844.500000,28.7317,-95.2428,0109,0.3270
1981-08-28 00:30:00 UTC,2444844.520833,28.7317,-95.2428,0109,0.3270
1981-08-28 01:00:00 UTC,2444844.541667,28.7317,-95.2428,0109,0.3270
1981-08-28 01:30:00 UTC,2444844.562500,28.7317,-95.2428,0109,0.3270
1981-08-28 02:00:00 UTC,2444844.583333,28.7317,-95.2428,0109,0.3270
1981-08-28 02:30:00 UTC,2444844.604167,28.7317,-95.2428,0109,0.3270
1981-08-28 03:00:00 UTC,2444844.625000,28.7317,-95.2428,0109,0.3270
1981-08-28 03:30:00 UTC,2444844.645833,28.7317,-95.2428,0109,0.3260
1981-08-28 04:00:00 UTC,2444844.666667,28.7317,-95.2428,0109,0.3260
1981-08-28 04:30:00 UTC,2444844.687500,28.7317,-95.2428,0109,0.3260
1981-08-28 05:00:00 UTC,2444844.708333,28.7317,-95.2428,0109,0.3270
1981-08-28 05:30:00 UTC,2444844.729167,28.7317,-95.2428,0109,0.3260
1981-08-28 06:00:00 UTC,2444844.750000,28.7317,-95.2428,0109,0.3260
1981-08-28 06:30:00 UTC,2444844.770833,28.7317,-95.2428,0109,0.3260
1981-08-28 07:00:00 UTC,2444844.791667,28.7317,-95.2428,0109,0.3260
1981-08-28 07:30:00 UTC,2444844.812500,28.7317,-95.2428,0109,0.3260
1981-08-28 08:00:00 UTC,2444844.833333,28.7317,-95.2428,0109,0.3260
1981-08-28 08:30:00 UTC,2444844.854167,28.7317,-95.2428,0109,0.3260
1981-08-28 09:00:00 UTC,2444844.875000,28.7317,-95.2428,0109,0.3260
1981-08-28 09:30:00 UTC,2444844.895833,28.7317,-95.2428,0109,0.3260
1981-08-28 10:00:00 UTC,2444844.916667,28.7317,-95.2428,0109,0.3260
1981-08-28 10:30:00 UTC,2444844.937500,28.7317,-95.2428,0109,0.3260
1981-08-28 11:00:00 UTC,2444844.958333,28.7317,-95.2428,0109,0.3260
1981-08-28 11:30:00 UTC,2444844.979167,28.7317,-95.2428,0109,0.3260
1981-08-28 12:00:00 UTC,2444845.000000,28.7317,-95.2428,0109,0.3260
1981-08-28 12:30:00 UTC,2444845.020833,28.7317,-95.2428,0109,0.3270
1981-08-28 13:00:00 UTC,2444845.041667,28.7317,-95.2428,0109,0.3270
1981-08-28 13:30:00 UTC,2444845.062500,28.7317,-95.2428,0109,0.3270
1981-08-28 14:00:00 UTC,2444845.083333,28.7317,-95.2428,0109,0.3270
1981-08-28 14:30:00 UTC,2444845.104167,28.7317,-95.2428,0109,0.3260
1981-08-28 15:00:00 UTC,2444845.125000,28.7317,-95.2428,0109,0.3260
1981-08-28 15:30:00 UTC,2444845.145833,28.7317,-95.2428,0109,0.3260
1981-08-28 16:00:00 UTC,2444845.166667,28.7317,-95.2428,0109,0.3260
1981-08-28 16:30:00 UTC,2444845.187500,28.7317,-95.2428,0109,0.3260
1981-08-28 17:00:00 UTC,2444845.208333,28.7317,-95.2428,0109,0.3270
1981-08-28 17:30:00 UTC,2444845.229167,28.7317,-95.2428,0109,0.3270
1981-08-28 18:00:00 UTC,2444845.250000,28.7317,-95.2428,0109,0.3270
1981-08-28 18:30:00 UTC,2444845.270833,28.7317,-95.2428,0109,0.3270
1981-08-28 19:00:00 UTC,2444845.291667,28.7317,-95.2428,0109,0.3260
1981-08-28 19:30:00 UTC,2444845.312500,28.7317,-95.2428,0109,0.3260
1981-08-28 20:00:00 UTC,2444845.333333,28.7317,-95.2428,0109,0.3260
1981-08-28 20:30:00 UTC,2444845.354167,28.7317,-95.2428,0109,0.3260
1981-08-28 21:00:00 UTC,2444845.375000,28.7317,-95.2428,0109,0.3260
1981-08-28 21:30:00 UTC,2444845.395833,28.7317,-95.2428,0109,0.3260
1981-08-28 22:00:00 UTC,2444845.416667,28.7317,-95.2428,0109,0.3260
1981-08-28 22:30:00 UTC,2444845.437500,28.7317,-95.2428,0109,0.3260
1981-08-28 23:00:00 UTC,2444845.458333,28.7317,-95.2428,0109,0.3260
1981-08-28 23:30:00 UTC,2444845.479167,28.7317,-95.2428,0109,0.3270
1981-08-29 00:00:00 UTC,2444845.500000,28.7317,-95.2428,0109,0.3280
1981-08-29 00:30:00 UTC,2444845.520833,28.7317,-95.2428,0109,0.3280
1981-08-29 01:00:00 UTC,2444845.541667,28.7317,-95.2428,0109,0.3280
1981-08-29 01:30:00 UTC,2444845.562500,28.7317,-95.2428,0109,0.3280
1981-08-29 02:00:00 UTC,2444845.583333,28.7317,-95.2428,0109,0.3280
1981-08-29 02:30:00 UTC,2444845.604167,28.7317,-95.2428,0109,0.3280
1981-08-29 03:00:00 UTC,2444845.625000,28.7317,-95.2428,0109,0.3280
1981-08-29 03:30:00 UTC,2444845.645833,28.7317,-95.2428,0109,0.3280
1981-08-29 04:00:00 UTC,2444845.666667,28.7317,-95.2428,0109,0.3280
1981-08-29 04:30:00 UTC,2444845.687500,28.7317,-95.2428,0109,0.3280
1981-08-29 05:00:00 UTC,2444845.708333,28.7317,-95.2428,0109,0.3280
1981-08-29 05:30:00 UTC,2444845.729167,28.7317,-95.2428,0109,0.3290
1981-08-29 06:00:00 UTC,2444845.750000,28.7317,-95.2428,0109,0.3300
1981-08-29 06:30:00 UTC,2444845.770833,28.7317,-95.2428,0109,0.3300
1981-08-29 07:00:00 UTC,2444845.791667,28.7317,-95.2428,0109,0.3290
1981-08-29 07:30:00 UTC,2444845.812500,28.7317,-95.2428,0109,0.3290
1981-08-29 08:00:00 UTC,2444845.833333,28.7317,-95.2428,0109,0.3290
1981-08-29 08:30:00 UTC,2444845.854167,28.7317,-95.2428,0109,0.3290
1981-08-29 09:00:00 UTC,2444845.875000,28.7317,-95.2428,0109,0.3290
1981-08-29 09:30:00 UTC,2444845.895833,28.7317,-95.2428,0109,0.3280
1981-08-29 10:00:00 UTC,2444845.916667,28.7317,-95.2428,0109,0.3270
1981-08-29 10:30:00 UTC,2444845.937500,28.7317,-95.2428,0109,0.3270
1981-08-29 11:00:00 UTC,2444845.958333,28.7317,-95.2428,0109,0.3270
1981-08-29 11:30:00 UTC,2444845.979167,28.7317,-95.2428,0109,0.3270
1981-08-29 12:00:00 UTC,2444846.000000,28.7317,-95.2428,0109,0.3270
1981-08-29 12:30:00 UTC,2444846.020833,28.7317,-95.2428,0109,0.3280
1981-08-29 13:00:00 UTC,2444846.041667,28.7317,-95.2428,0109,0.3280
1981-08-29 13:30:00 UTC,2444846.062500,28.7317,-95.2428,0109,0.3280
1981-08-29 14:00:00 UTC,2444846.083333,28.7317,-95.2428,0109,0.3280
1981-08-29 14:30:00 UTC,2444846.104167,28.7317,-95.2428,0109,0.3290
1981-08-29 15:00:00 UTC,2444846.125000,28.7317,-95.2428,0109,0.3280
1981-08-29 15:30:00 UTC,2444846.145833,28.7317,-95.2428,0109,0.3280
1981-08-29 16:00:00 UTC,2444846.166667,28.7317,-95.2428,0109,0.3280
1981-08-29 16:30:00 UTC,2444846.187500,28.7317,-95.2428,0109,0.3280
1981-08-29 17:00:00 UTC,2444846.208333,28.7317,-95.2428,0109,0.3280
1981-08-29 17:30:00 UTC,2444846.229167,28.7317,-95.2428,0109,0.3270
1981-08-29 18:00:00 UTC,2444846.250000,28.7317,-95.2428,0109,0.3270
1981-08-29 18:30:00 UTC,2444846.270833,28.7317,-95.2428,0109,0.3270
1981-08-29 19:00:00 UTC,2444846.291667,28.7317,-95.2428,0109,0.3270
1981-08-29 19:30:00 UTC,2444846.312500,28.7317,-95.2428,0109,0.3270
1981-08-29 20:00:00 UTC,2444846.333333,28.7317,-95.2428,0109,0.3250
1981-08-29 20:30:00 UTC,2444846.354167,28.7317,-95.2428,0109,0.3240
1981-08-29 21:00:00 UTC,2444846.375000,28.7317,-95.2428,0109,0.3230
1981-08-29 21:30:00 UTC,2444846.395833,28.7317,-95.2428,0109,0.3230
1981-08-29 22:00:00 UTC,2444846.416667,28.7317,-95.2428,0109,0.3230
1981-08-29 22:30:00 UTC,2444846.437500,28.7317,-95.2428,0109,0.3230
1981-08-29 23:00:00 UTC,2444846.458333,28.7317,-95.2428,0109,0.3230
1981-08-29 23:30:00 UTC,2444846.479167,28.7317,-95.2428,0109,0.3230
1981-08-30 00:00:00 UTC,2444846.500000,28.7317,-95.2428,0109,0.3230
1981-08-30 00:30:00 UTC,2444846.520833,28.7317,-95.2428,0109,0.3230
1981-08-30 01:00:00 UTC,2444846.541667,28.7317,-95.2428,0109,0.3220
1981-08-30 01:30:00 UTC,2444846.562500,28.7317,-95.2428,0109,0.3220
1981-08-30 02:00:00 UTC,2444846.583333,28.7317,-95.2428,0109,0.3220
1981-08-30 02:30:00 UTC,2444846.604167,28.7317,-95.2428,0109,0.3220
1981-08-30 03:00:00 UTC,2444846.625000,28.7317,-95.2428,0109,0.3220
1981-08-30 03:30:00 UTC,2444846.645833,28.7317,-95.2428,0109,0.3230
1981-08-30 04:00:00 UTC,2444846.666667,28.7317,-95.2428,0109,0.3220
1981-08-30 04:30:00 UTC,2444846.687500,28.7317,-95.2428,0109,0.3220
1981-08-30 05:00:00 UTC,2444846.708333,28.7317,-95.2428,0109,0.3220
1981-08-30 05:30:00 UTC,2444846.729167,28.7317,-95.2428,0109,0.3220
1981-08-30 06:00:00 UTC,2444846.750000,28.7317,-95.2428,0109,0.3220
1981-08-30 06:30:00 UTC,2444846.770833,28.7317,-95.2428,0109,0.3230
1981-08-30 07:00:00 UTC,2444846.791667,28.7317,-95.2428,0109,0.3230
1981-08-30 07:30:00 UTC,2444846.812500,28.7317,-95.2428,0109,0.3240
1981-08-30 08:00:00 UTC,2444846.833333,28.7317,-95.2428,0109,0.3240
1981-08-30 08:30:00 UTC,2444846.854167,28.7317,-95.2428,0109,0.3250
1981-08-30 09:00:00 UTC,2444846.875000,28.7317,-95.2428,0109,0.3250
1981-08-30 09:30:00 UTC,2444846.895833,28.7317,-95.2428,0109,0.3250
1981-08-30 10:00:00 UTC,2444846.916667,28.7317,-95.2428,0109,0.3250
1981-08-30 10:30:00 UTC,2444846.937500,28.7317,-95.2428,0109,0.3250
1981-08-30 11:00:00 UTC,2444846.958333,28.7317,-95.2428,0109,0.3250
1981-08-30 11:30:00 UTC,2444846.979167,28.7317,-95.2428,0109,0.3250
1981-08-30 12:00:00 UTC,2444847.000000,28.7317,-95.2428,0109,0.3250
1981-08-30 12:30:00 UTC,2444847.020833,28.7317,-95.2428,0109,0.3250
1981-08-30 13:00:00 UTC,2444847.041667,28.7317,-95.2428,0109,0.3260
1981-08-30 13:30:00 UTC,2444847.062500,28.7317,-95.2428,0109,0.3250
1981-08-30 14:00:00 UTC,2444847.083333,28.7317,-95.2428,0109,0.3250
1981-08-30 14:30:00 UTC,2444847.104167,28.7317,-95.2428,0109,0.3260
1981-08-30 15:00:00 UTC,2444847.125000,28.7317,-95.2428,0109,0.3260
1981-08-30 15:30:00 UTC,2444847.145833,28.7317,-95.2428,0109,0.3260
1981-08-30 16:00:00 UTC,2444847.166667,28.7317,-95.2428,0109,0.3260
1981-08-30 16:30:00 UTC,2444847.187500,28.7317,-95.2428,0109,0.3250
1981-08-30 17:00:00 UTC,2444847.208333,28.7317,-95.2428,0109,0.3260
1981-08-30 17:30:00 UTC,2444847.229167,28.7317,-95.2428,0109,0.3260
1981-08-30 18:00:00 UTC,2444847.250000,28.7317,-95.2428,0109,0.3260
1981-08-30 18:30:00 UTC,2444847.270833,28.7317,-95.2428,0109,0.3260
1981-08-30 19:00:00 UTC,2444847.291667,28.7317,-95.2428,0109,0.3260
1981-08-30 19:30:00 UTC,2444847.312500,28.7317,-95.2428,0109,0.3260
1981-08-30 20:00:00 UTC,2444847.333333,28.7317,-95.2428,0109,0.3260
1981-08-30 20:30:00 UTC,2444847.354167,28.7317,-95.2428,0109,0.3250
1981-08-30 21:00:00 UTC,2444847.375000,28.7317,-95.2428,0109,0.3250
1981-08-30 21:30:00 UTC,2444847.395833,28.7317,-95.2428,0109,0.3250
1981-08-30 22:00:00 UTC,2444847.416667,28.7317,-95.2428,0109,0.3250
1981-08-30 22:30:00 UTC,2444847.437500,28.7317,-95.2428,0109,0.3250
1981-08-30 23:00:00 UTC,2444847.458333,28.7317,-95.2428,0109,0.3250
1981-08-30 23:30:00 UTC,2444847.479167,28.7317,-95.2428,0109,0.3260
1981-08-31 00:00:00 UTC,2444847.500000,28.7317,-95.2428,0109,0.3250
1981-08-31 00:30:00 UTC,2444847.520833,28.7317,-95.2428,0109,0.3250
1981-08-31 01:00:00 UTC,2444847.541667,28.7317,-95.2428,0109,0.3250
1981-08-31 01:30:00 UTC,2444847.562500,28.7317,-95.2428,0109,0.3250
1981-08-31 02:00:00 UTC,2444847.583333,28.7317,-95.2428,0109,0.3250
1981-08-31 02:30:00 UTC,2444847.604167,28.7317,-95.2428,0109,0.3250
1981-08-31 03:00:00 UTC,2444847.625000,28.7317,-95.2428,0109,0.3250
1981-08-31 03:30:00 UTC,2444847.645833,28.7317,-95.2428,0109,0.3240
1981-08-31 04:00:00 UTC,2444847.666667,28.7317,-95.2428,0109,0.3240
1981-08-31 04:30:00 UTC,2444847.687500,28.7317,-95.2428,0109,0.3240
1981-08-31 05:00:00 UTC,2444847.708333,28.7317,-95.2428,0109,0.3240
1981-08-31 05:30:00 UTC,2444847.729167,28.7317,-95.2428,0109,0.3240
1981-08-31 06:00:00 UTC,2444847.750000,28.7317,-95.2428,0109,0.3240
1981-08-31 06:30:00 UTC,2444847.770833,28.7317,-95.2428,0109,0.3240
1981-08-31 07:00:00 UTC,2444847.791667,28.7317,-95.2428,0109,0.3240
1981-08-31 07:30:00 UTC,2444847.812500,28.7317,-95.2428,0109,0.3240
1981-08-31 08:00:00 UTC,2444847.833333,28.7317,-95.2428,0109,0.3240
1981-08-31 08:30:00 UTC,2444847.854167,28.7317,-95.2428,0109,0.3250
1981-08-31 09:00:00 UTC,2444847.875000,28.7317,-95.2428,0109,0.3250
1981-08-31 09:30:00 UTC,2444847.895833,28.7317,-95.2428,0109,0.3250
1981-08-31 10:00:00 UTC,2444847.916667,28.7317,-95.2428,0109,0.3250
1981-08-31 10:30:00 UTC,2444847.937500,28.7317,-95.2428,0109,0.3250
1981-08-31 11:00:00 UTC,2444847.958333,28.7317,-95.2428,0109,0.3250
1981-08-31 11:30:00 UTC,2444847.979167,28.7317,-95.2428,0109,0.3250
1981-08-31 12:00:00 UTC,2444848.000000,28.7317,-95.2428,0109,0.3250
1981-08-31 12:30:00 UTC,2444848.020833,28.7317,-95.2428,0109,0.3250
1981-08-31 13:00:00 UTC,2444848.041667,28.7317,-95.2428,0109,0.3250
1981-08-31 13:30:00 UTC,2444848.062500,28.7317,-95.2428,0109,0.3250
1981-08-31 14:00:00 UTC,2444848.083333,28.7317,-95.2428,0109,0.3250
1981-08-31 14:30:00 UTC,2444848.104167,28.7317,-95.2428,0109,0.3250
1981-08-31 15:00:00 UTC,2444848.125000,28.7317,-95.2428,0109,0.3250
1981-08-31 15:30:00 UTC,2444848.145833,28.7317,-95.2428,0109,0.3250
1981-08-31 16:00:00 UTC,2444848.166667,28.7317,-95.2428,0109,0.3250
1981-08-31 16:30:00 UTC,2444848.187500,28.7317,-95.2428,0109,0.3250
1981-08-31 17:00:00 UTC,2444848.208333,28.7317,-95.2428,0109,0.3260
1981-08-31 17:30:00 UTC,2444848.229167,28.7317,-95.2428,0109,0.3250
1981-08-31 18:00:00 UTC,2444848.250000,28.7317,-95.2428,0109,0.3250
1981-08-31 18:30:00 UTC,2444848.270833,28.7317,-95.2428,0109,0.3250
1981-08-31 19:00:00 UTC,2444848.291667,28.7317,-95.2428,0109,0.3250
1981-08-31 19:30:00 UTC,2444848.312500,28.7317,-95.2428,0109,0.3260
1981-08-31 20:00:00 UTC,2444848.333333,28.7317,-95.2428,0109,0.3250
1981-08-31 20:30:00 UTC,2444848.354167,28.7317,-95.2428,0109,0.3240
1981-08-31 21:00:00 UTC,2444848.375000,28.7317,-95.2428,0109,0.3240
1981-08-31 21:30:00 UTC,2444848.395833,28.7317,-95.2428,0109,0.3230
1981-08-31 22:00:00 UTC,2444848.416667,28.7317,-95.2428,0109,0.3230
1981-08-31 22:30:00 UTC,2444848.437500,28.7317,-95.2428,0109,0.3230
1981-08-31 23:00:00 UTC,2444848.458333,28.7317,-95.2428,0109,0.3240
1981-08-31 23:30:00 UTC,2444848.479167,28.7317,-95.2428,0109,0.3240
1981-09-01 00:00:00 UTC,2444848.500000,28.7317,-95.2428,0109,0.3240
1981-09-01 00:30:00 UTC,2444848.520833,28.7317,-95.2428,0109,0.3240
1981-09-01 01:00:00 UTC,2444848.541667,28.7317,-95.2428,0109,0.3240
1981-09-01 01:30:00 UTC,2444848.562500,28.7317,-95.2428,0109,0.3240
1981-09-01 02:00:00 UTC,2444848.583333,28.7317,-95.2428,0109,0.3240
1981-09-01 02:30:00 UTC,2444848.604167,28.7317,-95.2428,0109,0.3240
1981-09-01 03:00:00 UTC,2444848.625000,28.7317,-95.2428,0109,0.3240
1981-09-01 03:30:00 UTC,2444848.645833,28.7317,-95.2428,0109,0.3240
1981-09-01 04:00:00 UTC,2444848.666667,28.7317,-95.2428,0109,0.3240
1981-09-01 04:30:00 UTC,2444848.687500,28.7317,-95.2428,0109,0.3240
1981-09-01 05:00:00 UTC,2444848.708333,28.7317,-95.2428,0109,0.3240
1981-09-01 05:30:00 UTC,2444848.729167,28.7317,-95.2428,0109,0.3240
1981-09-01 06:00:00 UTC,2444848.750000,28.7317,-95.2428,0109,0.3240
1981-09-01 06:30:00 UTC,2444848.770833,28.7317,-95.2428,0109,0.3240
1981-09-01 07:00:00 UTC,2444848.791667,28.7317,-95.2428,0109,0.3240
1981-09-01 07:30:00 UTC,2444848.812500,28.7317,-95.2428,0109,0.3240
1981-09-01 08:00:00 UTC,2444848.833333,28.7317,-95.2428,0109,0.3240
1981-09-01 08:30:00 UTC,2444848.854167,28.7317,-95.2428,0109,0.3240
1981-09-01 09:00:00 UTC,2444848.875000,28.7317,-95.2428,0109,0.3240
1981-09-01 09:30:00 UTC,2444848.895833,28.7317,-95.2428,0109,0.3240
1981-09-01 10:00:00 UTC,2444848.916667,28.7317,-95.2428,0109,0.3240
1981-09-01 10:30:00 UTC,2444848.937500,28.7317,-95.2428,0109,0.3240
1981-09-01 11:00:00 UTC,2444848.958333,28.7317,-95.2428,0109,0.3230
1981-09-01 11:30:00 UTC,2444848.979167,28.7317,-95.2428,0109,0.3230
1981-09-01 12:00:00 UTC,2444849.000000,28.7317,-95.2428,0109,0.3240
1981-09-01 12:30:00 UTC,2444849.020833,28.7317,-95.2428,0109,0.3240
1981-09-01 13:00:00 UTC,2444849.041667,28.7317,-95.2428,0109,0.3240
1981-09-01 13:30:00 UTC,2444849.062500,28.7317,-95.2428,0109,0.3240
1981-09-01 14:00:00 UTC,2444849.083333,28.7317,-95.2428,0109,0.3240
1981-09-01 14:30:00 UTC,2444849.104167,28.7317,-95.2428,0109,0.3240
1981-09-01 15:00:00 UTC,2444849.125000,28.7317,-95.2428,0109,0.3240
1981-09-01 15:30:00 UTC,2444849.145833,28.7317,-95.2428,0109,0.3240
1981-09-01 16:00:00 UTC,2444849.166667,28.7317,-95.2428,0109,0.3240
1981-09-01 16:30:00 UTC,2444849.187500,28.7317,-95.2428,0109,0.3240
1981-09-01 17:00:00 UTC,2444849.208333,28.7317,-95.2428,0109,0.3240
1981-09-01 17:30:00 UTC,2444849.229167,28.7317,-95.2428,0109,0.3250
1981-09-01 18:00:00 UTC,2444849.250000,28.7317,-95.2428,0109,0.3250
1981-09-01 18:30:00 UTC,2444849.270833,28.7317,-95.2428,0109,0.3250
1981-09-01 19:00:00 UTC,2444849.291667,28.7317,-95.2428,0109,0.3250
1981-09-01 19:30:00 UTC,2444849.312500,28.7317,-95.2428,0109,0.3250
1981-09-01 20:00:00 UTC,2444849.333333,28.7317,-95.2428,0109,0.3250
1981-09-01 20:30:00 UTC,2444849.354167,28.7317,-95.2428,0109,0.3250
1981-09-01 21:00:00 UTC,2444849.375000,28.7317,-95.2428,0109,0.3250
1981-09-01 21:30:00 UTC,2444849.395833,28.7317,-95.2428,0109,0.3260
1981-09-01 22:00:00 UTC,2444849.416667,28.7317,-95.2428,0109,0.3250
1981-09-01 22:30:00 UTC,2444849.437500,28.7317,-95.2428,0109,0.3250
1981-09-01 23:00:00 UTC,2444849.458333,28.7317,-95.2428,0109,0.3250
1981-09-01 23:30:00 UTC,2444849.479167,28.7317,-95.2428,0109,0.3260
1981-09-02 00:00:00 UTC,2444849.500000,28.7317,-95.2428,0109,0.3250